Date String (YYYY-MM-DD hh:mm:ss) UTC,Instrument flags,Ambient pressure (hPa),Sample flow (lpm),Bypass flow (lpm),Sample temperature (°C),Ambient temperature (°C),ASC tube jacket temperature (°C),LED temperature (°C),Box temperature (°C),Sample RH (%),Span deviation,Mass concentration (μg/m³),Mass concentration (μg/m³),Mass concentration (μg/m³)
DateTimeUTC,F1_M11,P_M11,Q1_M11,Q2_M11,T1_M11,T2_M11,T3_M11,T4_M11,T5_M11,U1_M11,ZSPAN_M11,X0_M11,X2_M11,X1_M11
2022-04-19 12:00:00,,0818.8,5.00,0.00,24.5,23.6,00.0,33.5,26.3,15.6,0000.3,0022.93,0010.08,0007.61
2022-04-19 12:01:00,,0818.8,5.00,0.00,24.5,23.7,00.0,33.5,26.3,15.5,0000.3,0023.11,0010.01,0007.59
2022-04-19 12:02:00,,0818.8,5.00,0.00,24.5,23.7,00.0,33.5,26.3,15.4,0000.3,0022.23,0009.89,0007.56
2022-04-19 12:03:00,,0818.8,5.00,0.00,24.5,23.7,00.0,33.5,26.3,15.6,0000.5,0021.66,0009.93,0007.54
2022-04-19 12:04:00,,0818.8,5.01,0.00,24.5,23.7,00.0,33.5,26.4,15.8,0000.7,0021.56,0009.87,0007.53
2022-04-19 12:05:00,,0818.8,5.00,0.00,24.5,23.7,00.0,33.5,26.4,15.8,0001.0,0020.97,0009.86,0007.54
2022-04-19 12:06:00,,0818.7,5.00,0.00,24.5,23.7,00.0,33.5,26.4,15.9,0001.5,0020.41,0009.82,0007.53
2022-04-19 12:07:00,,0818.8,5.00,0.00,24.6,23.8,00.0,33.5,26.4,16.1,0001.7,0020.57,0009.86,0007.52
2022-04-19 12:08:00,,0818.8,5.00,0.00,24.6,23.8,00.0,33.5,26.4,16.4,0002.0,0021.35,0009.94,0007.56
2022-04-19 12:09:00,,0818.8,4.99,0.00,24.5,23.7,00.0,33.5,26.4,16.6,0002.1,0022.27,0010.04,0007.63
2022-04-19 12:10:00,,0818.8,4.99,0.00,24.5,23.7,00.0,33.5,26.3,16.7,0002.3,0022.22,0010.16,0007.78
2022-04-19 12:11:00,,0818.8,5.00,0.00,24.5,23.7,00.0,33.5,26.3,16.9,0002.2,0022.36,0010.33,0007.94
2022-04-19 12:12:00,,0818.7,5.01,0.00,24.5,23.7,00.0,33.5,26.3,16.9,0001.7,0022.83,0010.54,0008.11
2022-04-19 12:13:00,,0818.7,5.00,0.00,24.5,23.7,00.0,33.5,26.4,16.4,0001.6,0023.49,0010.69,0008.19
2022-04-19 12:14:00,,0818.8,5.01,0.00,24.6,23.7,00.0,33.5,26.4,16.1,0001.7,0023.61,0010.70,0008.22
2022-04-19 12:15:00,,0818.7,4.99,0.00,24.6,23.7,00.0,33.5,26.4,16.1,0001.7,0024.06,0010.70,0008.25
2022-04-19 12:16:00,,0818.6,5.00,0.00,24.6,23.7,00.0,33.5,26.4,16.1,0001.6,0024.22,0010.72,0008.28
2022-04-19 12:17:00,,0818.5,5.00,0.00,24.6,23.7,00.0,33.5,26.4,16.2,0001.6,0024.73,0010.69,0008.31
2022-04-19 12:18:00,,0818.5,5.00,0.00,24.5,23.7,00.0,33.5,26.3,16.8,0001.2,0025.81,0010.69,0008.40
2022-04-19 12:19:00,,0818.5,5.01,0.00,24.5,23.6,00.0,33.5,26.3,17.0,0001.2,0025.31,0010.75,0008.48
2022-04-19 12:20:00,,0818.7,5.00,0.00,24.4,23.5,00.0,33.5,26.2,17.1,0001.1,0024.10,0010.78,0008.54
2022-04-19 12:21:00,,0818.8,5.00,0.00,24.4,23.4,00.0,33.5,26.2,17.2,0000.7,0024.01,0010.82,0008.57
2022-04-19 12:22:00,,0818.7,4.99,0.00,24.4,23.4,00.0,33.5,26.1,17.2,0000.6,0024.88,0010.88,0008.57
2022-04-19 12:23:00,,0818.7,5.00,0.00,24.3,23.4,00.0,33.4,26.1,17.3,0000.9,0025.39,0010.89,0008.58
2022-04-19 12:24:00,,0818.7,5.01,0.00,24.3,23.3,00.0,33.4,26.0,17.3,0001.3,0025.93,0010.94,0008.67
2022-04-19 12:25:00,,0818.7,4.99,0.00,24.3,23.3,00.0,33.4,26.0,17.2,0001.3,0026.02,0011.01,0008.79
2022-04-19 12:26:00,,0818.8,5.00,0.00,24.3,23.3,00.0,33.4,26.0,17.3,0001.3,0025.70,0011.18,0008.90
2022-04-19 12:27:00,,0818.7,5.00,0.00,24.3,23.3,00.0,33.4,26.0,17.2,0001.2,0025.57,0011.31,0008.98
2022-04-19 12:28:00,,0818.7,5.00,0.00,24.3,23.3,00.0,33.4,26.0,17.1,0000.9,0026.50,0011.43,0009.06
2022-04-19 12:29:00,,0818.7,5.02,0.00,24.3,23.4,00.0,33.3,26.1,17.1,0001.1,0026.28,0011.50,0009.06
2022-04-19 12:30:00,,0818.6,5.00,0.00,24.3,23.4,00.0,33.3,26.1,17.4,0000.8,0026.08,0011.51,0009.07
2022-04-19 12:31:00,,0818.5,5.00,0.00,24.3,23.5,00.0,33.3,26.2,17.7,0000.8,0026.40,0011.55,0009.13
2022-04-19 12:32:00,,0818.5,5.00,0.00,24.3,23.5,00.0,33.3,26.2,18.0,0001.0,0027.26,0011.63,0009.27
2022-04-19 12:33:00,,0818.6,4.99,0.00,24.3,23.4,00.0,33.3,26.1,18.0,0001.0,0026.12,0011.77,0009.41
2022-04-19 12:34:00,,0818.7,5.00,0.00,24.3,23.4,00.0,33.3,26.0,17.9,0001.1,0025.44,0011.86,0009.48
2022-04-19 12:35:00,,0818.8,5.00,0.00,24.2,23.3,00.0,33.3,26.0,17.7,0001.2,0024.86,0011.86,0009.53
2022-04-19 12:36:00,,0818.8,4.99,0.00,24.2,23.2,00.0,33.3,25.9,17.6,0000.9,0024.73,0011.91,0009.58
2022-04-19 12:37:00,,0818.7,4.99,0.00,24.1,23.2,00.0,33.3,25.9,17.7,0000.6,0025.97,0011.88,0009.62
2022-04-19 12:38:00,,0818.7,5.00,0.00,24.1,23.1,00.0,33.3,25.8,17.8,0000.8,0027.06,0011.89,0009.65
2022-04-19 12:39:00,,0818.6,5.00,0.00,24.1,23.1,00.0,33.2,25.7,17.8,0001.1,0027.63,0011.98,0009.70
2022-04-19 12:40:00,,0818.5,5.01,0.00,24.0,23.0,00.0,33.2,25.7,18.0,0001.1,0027.03,0012.10,0009.78
2022-04-19 12:41:00,,0818.5,5.00,0.00,24.0,23.0,00.0,33.2,25.7,18.2,0001.1,0027.39,0012.18,0009.81
2022-04-19 12:42:00,,0818.5,4.99,0.00,24.0,23.0,00.0,33.2,25.7,18.2,0001.5,0027.35,0012.19,0009.81
2022-04-19 12:43:00,,0818.8,4.99,0.00,23.9,22.9,00.0,33.1,25.6,18.2,0001.8,0026.77,0012.24,0009.75
2022-04-19 12:44:00,,0818.8,5.01,0.00,23.9,23.0,00.0,33.1,25.6,18.1,0001.6,0026.72,0012.14,0009.69
2022-04-19 12:45:00,,0818.8,5.00,0.00,23.9,23.0,00.0,33.1,25.6,18.0,0001.1,0027.18,0012.08,0009.65
2022-04-19 12:46:00,,0818.7,4.99,0.00,23.9,23.0,00.0,33.1,25.6,17.9,0000.5,0027.33,0012.11,0009.64
2022-04-19 12:47:00,,0818.6,5.00,0.00,23.9,23.0,00.0,33.1,25.6,17.9,0000.9,0027.30,0012.14,0009.63
2022-04-19 12:48:00,,0818.5,4.99,0.00,23.9,23.0,00.0,33.0,25.6,18.0,0001.3,0026.43,0012.16,0009.64
2022-04-19 12:49:00,,0818.4,4.99,0.00,23.9,23.0,00.0,33.0,25.6,18.0,0001.1,0026.16,0012.14,0009.65
2022-04-19 12:50:00,,0818.2,5.01,0.00,23.8,22.9,00.0,33.0,25.5,18.1,0001.0,0025.33,0012.17,0009.67
2022-04-19 12:51:00,,0818.2,5.00,0.00,23.8,22.9,00.0,33.0,25.5,18.1,0001.0,0025.94,0012.11,0009.66
2022-04-19 12:52:00,,0818.3,5.01,0.00,23.8,22.9,00.0,33.0,25.5,18.1,0000.9,0025.94,0012.06,0009.62
2022-04-19 12:53:00,,0818.4,5.01,0.00,23.8,22.8,00.0,32.9,25.5,18.1,0000.4,0026.10,0012.03,0009.56
2022-04-19 12:54:00,,0818.4,5.00,0.00,23.8,22.6,00.0,32.9,25.5,18.0,0000.2,0026.23,0011.99,0009.52
2022-04-19 12:55:00,,0818.4,4.99,0.00,23.7,22.6,00.0,32.9,25.4,17.9,0000.4,0025.83,0011.92,0009.49
2022-04-19 12:56:00,,0818.4,4.99,0.00,23.7,22.6,00.0,32.9,25.4,17.9,0000.5,0026.40,0011.91,0009.47
2022-04-19 12:57:00,,0818.4,5.01,0.00,23.7,22.7,00.0,32.8,25.4,18.0,0000.7,0025.98,0011.98,0009.47
2022-04-19 12:58:00,,0818.4,4.99,0.00,23.7,22.7,00.0,32.8,25.5,18.2,0000.3,0025.73,0011.99,0009.49
2022-04-19 12:59:00,,0818.4,4.99,0.00,23.7,22.8,00.0,32.8,25.5,18.2,-000.1,0025.66,0012.03,0009.52
